Location: Hobi?a Gr?di?te
(45.4833°N, 22.7833°E)
Time: 11:54:13
(UTC+00:00)

MINOTAUR 4 R/B - Pass Details

Date: 28 January 2023
Orbit: 448 x 453 km, 98.0° (Epoch: 20 March)

Event Time Altitude Azimuth Distance (km) Brightness Sun altitude
Exits shadow 15:59:32 - 74° (ENE) 1,806 6.3 -5.7°
Enters shadow 17:14:30 -35° 10° (N) 8,045 10.2 -18.5°
Maximum altitude 17:33:47 68° 285° (WNW) 490 4.1 -21.8°
